Regional Weather Roundup
Issued by NWS Northern Indiana

Home | Current Version | Previous Version | Text Only | Print | Product List | Glossary On
Versions: 1 2 3 4 5 6 7 8 9 10 11 12 13 14 15 16 17 18 19 20 21 22 23 24 25 26 27 28 29 30 31 32 33 34 35 36 37 38 39 40 41 42 43 44 45 46 47 48 49 50
000
ASUS43 KIWX 052210
RWRIWX

KIWX WEATHER ROUNDUP
NATIONAL WEATHER SERVICE NORTHERN INDIANA
600 PM EDT THU MAY 05 2016

NOTE: "FAIR" INDICATES FEW OR NO CLOUDS BELOW 12,000 FEET WITH NO
SIGNIFICANT WEATHER AND/OR OBSTRUCTIONS TO VISIBILITY.

* THESE STATIONS ARE NOT UNDER NWS QUALITY CONTROL. THEY ALSO MAY NOT
  REPORT WEATHER SUCH AS PRECIPITATION OR FOG.

INZ001>027-052300-
NORTHERN INDIANA

CITY           SKY/WX    TMP DP  RH WIND       PRES   REMARKS
VALPARAISO     SUNNY     54  42  64 N15G22    29.98S
MICHIGAN CITY* SUNNY     48  43  81 N5        29.99F
LAPORTE*       SUNNY     56  45  67 N14       29.97S
KNOX*          SUNNY     55  34  44 NW17      29.96S
SOUTH BEND     SUNNY     55  44  66 NW15      29.95F
ELKHART*       SUNNY     59  48  67 NW14G20   29.94R
GOSHEN         PTSUNNY   61  47  59 NW15      29.91R
MONTICELLO*    SUNNY     62  40  43 N15       29.93F
LOGANSPORT*    SUNNY     61  45  55 NW13      29.93R
ROCHESTER*     SUNNY     63  45  51 N14G22    29.92S
WARSAW*        CLOUDY    61  45  55 N10G18    29.91S
ANGOLA*          N/A     63  39  42 N10       29.88S
FORT WAYNE     PTSUNNY   65  44  46 N10       29.87S
HUNTINGTON*    PTSUNNY   65  42  44 N13G20    29.88R
PERU/GRISSOM   MOSUNNY   64  45  50 N15       29.89S
MARION*        CLOUDY    63  44  50 N12       29.89S

$$
INZ028>050-052300-
CENTRAL INDIANA

CITY           SKY/WX    TMP DP  RH WIND       PRES   REMARKS
LAFAYETTE      SUNNY     63  42  46 N15       29.94R
KOKOMO*        PTSUNNY   64  46  52 N20       29.89S
MUNCIE*        MOSUNNY   63  46  54 N9        29.87F
INDIANAPOLIS   PTSUNNY   61  46  57 NW17      29.89F

$$
MIZ043>046-050>051-056>058-064>065-071>073-077>080-052300-
SOUTHWEST LOWER MICHIGAN

CITY           SKY/WX    TMP DP  RH WIND       PRES   REMARKS
BATTLE CREEK   PTSUNNY   64  38  38 N13       29.90S
BENTON HARBOR  SUNNY     48  41  76 VRB7      29.97F
COLDWATER*     PTSUNNY   63  44  48 NE13      29.89S
HILLSDALE*     MOSUNNY   64  31  29 N16       29.88S
HOLLAND        SUNNY    N/A N/A N/A NW14      29.95F
GRAND RAPIDS   PTSUNNY   68  43  40 NW14      29.90F
KALAMAZOO      CLOUDY    64  43  46 N13       29.91S
STURGIS*       CLOUDY    63  43  48 N12G17    29.89S
THREE RIVERS*  PTSUNNY   63  46  55 NW12      29.91S

$$
OHZ001>008-015>018-024>025-052300-
NORTHWEST OHIO

CITY           SKY/WX    TMP DP  RH WIND       PRES   REMARKS
WAUSEON*         N/A     66 N/A N/A N15G29    29.85S
DEFIANCE       MOSUNNY   67  37  33 N16G30    29.86R
FINDLAY        PTSUNNY   64  38  38 N20       29.83R
TOLEDO EXPRESS CLOUDY    63  39  41 N15       29.85R
TOLEDO METCALF MOSUNNY   64  39  39 NE10G17   29.85S
LIMA           PTSUNNY   60  43  53 N12       29.84R

$$
AND FOR LAKE MICHIGAN COASTAL AND OPEN LAKE BUOY OBSERVATIONS

STATION/POSITION TEMP    WIND        PRES    VSBY  WAVE
                 AIR SEA DIR/SP/G                  HT/PER
                 (F)     (DEG/KT/KT) (MB)    (MI)  (FT/S)
CALUMET HARBOR    48     350/ 10/ 13 1015.5F
MICHIGAN CITY     45     340/  8/  9   N/A
BURNS HARBOR      44      20/  7/ 10 1016.6F
SAINT JOSEPH      46     340/  7/ 10 1015.2F
SOUTH LAKE BUOY   43 40   30/  8/  8 1015.2F         3/ 6
4 MI NW BRIDGMAN  44 47                N/A           3/ 5

$$
&&




USA.gov is the U.S. government's official web portal to all federal, state and local government web resources and services.